Change the Weather History Date:

Wednesday, November 14, 2012

  Actual Average Record
Temperature  
Mean Temperature 35 °F -  
Max Temperature 42 °F 45 °F 62 °F (1973)
Min Temperature 28 °F 27 °F 8 °F (1986)
Degree Days  
Heating Degree Days 30    
Moisture  
Dew Point 24 °F    
Average Humidity 66    
Maximum Humidity 86    
Minimum Humidity 46    
Precipitation  
Precipitation 0.00 in - - ()
Sea Level Pressure  
Sea Level Pressure 30.48 in    
Wind  
Wind Speed 8 mph (North)    
Max Wind Speed 14 mph    
Max Gust Speed 18 mph    
Visibility 10 miles    
Events      
Averages and records for this station are not official NWS values.
T = Trace of Precipitation, MM = Missing Value Source: NWS Daily Summary

Daily Weather History Graph

Daily Weather History Graph

Search for Another Location

Airport or City:

Trip Planner

Search our weather history database for the weather conditions in past years. The results will help you decide how hot, cold, wet, or windy it might be!

Date:

Astronomy

Nov. 14, 2012 Rise Set
Actual Time 6:34 AM EST 4:11 PM EST
Civil Twilight 6:02 AM EST 4:43 PM EST
Nautical Twilight 5:27 AM EST 5:18 PM EST
Astronomical Twilight 4:53 AM EST 5:52 PM EST
Moon 7:22 AM EST (11/14) 4:54 PM EST (11/14)
Length of Visible Light 10h 40m
Length of Day
9h 37m
New Moon, 1% of the Moon is Illuminated
Nov 14
New Moon
Nov 20
First Quarter
Nov 28
Full
Dec 6
Last Quarter
Dec 13
New

Hourly Weather History & Observations

Time (EST) Temp. Windchill Dew Point Humidity Pressure Visibility Wind Dir Wind Speed Gust Speed Precip Events Conditions
12:15 AM 33.8 °F 28.6 °F 24.8 °F 70% 30.41 in 10.0 mi North 5.8 mph - N/A   Clear
12:35 AM 32.0 °F 26.4 °F 24.8 °F 75% 30.41 in 10.0 mi North 5.8 mph - N/A   Clear
12:55 AM 30.2 °F 26.7 °F 24.8 °F 80% 30.42 in 10.0 mi North 3.5 mph - N/A   Clear
1:15 AM 30.2 °F 25.4 °F 24.8 °F 80% 30.42 in 10.0 mi North 4.6 mph - N/A   Clear
1:35 AM 28.4 °F - 24.8 °F 86% 30.43 in 10.0 mi Calm Calm - N/A   Clear
1:55 AM 28.4 °F 22.2 °F 24.8 °F 86% 30.42 in 10.0 mi NNW 5.8 mph - N/A   Clear
2:15 AM 30.2 °F 23.4 °F 24.8 °F 80% 30.42 in 10.0 mi North 6.9 mph - N/A   Clear
2:35 AM 30.2 °F 23.4 °F 24.8 °F 80% 30.43 in 10.0 mi North 6.9 mph - N/A   Clear
2:55 AM 30.2 °F 22.6 °F 24.8 °F 80% 30.43 in 10.0 mi NNW 8.1 mph - N/A   Clear
3:15 AM 30.2 °F 21.3 °F 23.0 °F 75% 30.43 in 10.0 mi NNW 10.4 mph - N/A   Clear
3:35 AM 30.2 °F 21.9 °F 23.0 °F 75% 30.43 in 10.0 mi North 9.2 mph - N/A   Clear
3:55 AM 30.2 °F 24.3 °F 23.0 °F 75% 30.44 in 10.0 mi North 5.8 mph - N/A   Clear
4:15 AM 30.2 °F 24.3 °F 23.0 °F 75% 30.45 in 10.0 mi North 5.8 mph - N/A   Clear
4:35 AM 30.2 °F 23.4 °F 23.0 °F 75% 30.45 in 10.0 mi NNW 6.9 mph - N/A   Clear
4:55 AM 30.2 °F 22.6 °F 23.0 °F 75% 30.46 in 10.0 mi NNW 8.1 mph - N/A   Clear
5:15 AM 30.2 °F 22.6 °F 23.0 °F 75% 30.47 in 10.0 mi NNW 8.1 mph - N/A   Clear
5:35 AM 30.2 °F 21.3 °F 21.2 °F 69% 30.47 in 10.0 mi NNW 10.4 mph - N/A   Clear
5:55 AM 30.2 °F 21.3 °F 21.2 °F 69% 30.47 in 10.0 mi NNW 10.4 mph - N/A   Clear
6:15 AM 30.2 °F 20.8 °F 21.2 °F 69% 30.48 in 10.0 mi NNW 11.5 mph - N/A   Clear
6:35 AM 30.2 °F 20.2 °F 21.2 °F 69% 30.49 in 10.0 mi NNW 12.7 mph - N/A   Clear
6:55 AM 30.2 °F 20.8 °F 21.2 °F 69% 30.50 in 10.0 mi NNW 11.5 mph - N/A   Clear
7:15 AM 30.2 °F 20.8 °F 23.0 °F 75% 30.50 in 10.0 mi NNW 11.5 mph - N/A   Clear
7:35 AM 30.2 °F 20.8 °F 23.0 °F 75% 30.51 in 10.0 mi NNW 11.5 mph 17.3 mph N/A   Clear
7:55 AM 32.0 °F 22.5 °F 23.0 °F 69% 30.52 in 10.0 mi NNW 12.7 mph - N/A   Clear
8:15 AM 33.8 °F 25.8 °F 23.0 °F 65% 30.52 in 10.0 mi NNW 10.4 mph - N/A   Clear
8:35 AM 33.8 °F 25.3 °F 24.8 °F 70% 30.52 in 10.0 mi NNW 11.5 mph - N/A   Clear
8:55 AM 35.6 °F 27.5 °F 24.8 °F 65% 30.52 in 10.0 mi NNW 11.5 mph - N/A   Clear
9:15 AM 37.4 °F 29.8 °F 24.8 °F 60% 30.51 in 10.0 mi North 11.5 mph - N/A   Clear
9:35 AM 37.4 °F 29.8 °F 24.8 °F 60% 30.52 in 10.0 mi North 11.5 mph - N/A   Clear
9:55 AM 37.4 °F 30.8 °F 24.8 °F 60% 30.52 in 10.0 mi North 9.2 mph - N/A   Clear
10:15 AM 39.2 °F 31.6 °F 24.8 °F 56% 30.52 in 10.0 mi NNW 12.7 mph 16.1 mph N/A   Clear
10:35 AM 39.2 °F 31.2 °F 24.8 °F 56% 30.51 in 10.0 mi North 13.8 mph - N/A   Clear
10:55 AM 39.2 °F 33.0 °F 24.8 °F 56% 30.50 in 10.0 mi North 9.2 mph - N/A   Clear
11:35 AM 41.0 °F 34.7 °F 24.8 °F 53% 30.48 in 10.0 mi NNE 10.4 mph - N/A   Clear
11:55 AM 42.8 °F 35.8 °F 24.8 °F 49% 30.48 in 10.0 mi NNW 13.8 mph - N/A   Clear
12:15 PM 42.8 °F 37.5 °F 24.8 °F 49% 30.47 in 10.0 mi NNE 9.2 mph - N/A   Clear
12:35 PM 42.8 °F 37.0 °F 24.8 °F 49% 30.47 in 10.0 mi North 10.4 mph 17.3 mph N/A   Clear
12:55 PM 42.8 °F 37.0 °F 23.0 °F 46% 30.47 in 10.0 mi North 10.4 mph - N/A   Clear
1:55 PM 42.8 °F 37.0 °F 24.8 °F 49% 30.47 in - North 10.4 mph 18.4 mph N/A   Clear
2:15 PM 42.8 °F 36.6 °F 24.8 °F 49% 30.46 in - North 11.5 mph 18.4 mph N/A   Clear
2:35 PM 42.8 °F 36.2 °F 24.8 °F 49% 30.46 in 10.0 mi North 12.7 mph 18.4 mph N/A   Clear
2:55 PM 42.8 °F 37.0 °F 24.8 °F 49% 30.47 in 10.0 mi North 10.4 mph - N/A   Clear
3:15 PM 42.8 °F 37.0 °F 24.8 °F 49% 30.47 in 10.0 mi North 10.4 mph - N/A   Clear
3:35 PM 41.0 °F 35.2 °F 24.8 °F 53% 30.47 in 10.0 mi North 9.2 mph - N/A   Clear
3:55 PM 39.2 °F 33.0 °F 24.8 °F 56% 30.47 in 10.0 mi NNE 9.2 mph - N/A   Clear
4:15 PM 37.4 °F 31.4 °F 23.0 °F 56% 30.47 in 10.0 mi North 8.1 mph - N/A   Clear
4:35 PM 37.4 °F 31.4 °F 24.8 °F 60% 30.48 in 10.0 mi NNW 8.1 mph - N/A   Clear
4:55 PM 37.4 °F 31.4 °F 24.8 °F 60% 30.48 in 10.0 mi North 8.1 mph - N/A   Clear
5:15 PM 37.4 °F 30.8 °F 23.0 °F 56% 30.48 in 10.0 mi North 9.2 mph - N/A   Clear
5:35 PM 35.6 °F 28.0 °F 23.0 °F 60% 30.49 in 10.0 mi North 10.4 mph - N/A   Clear
5:55 PM 35.6 °F 28.0 °F 24.8 °F 65% 30.49 in 10.0 mi North 10.4 mph - N/A   Clear
6:15 PM 35.6 °F 28.0 °F 24.8 °F 65% 30.50 in 10.0 mi North 10.4 mph - N/A   Clear
6:35 PM 35.6 °F 27.5 °F 23.0 °F 60% 30.50 in 10.0 mi North 11.5 mph - N/A   Clear
7:15 PM 33.8 °F 26.4 °F 23.0 °F 65% 30.51 in 10.0 mi North 9.2 mph - N/A   Clear
7:35 PM 33.8 °F 26.4 °F 23.0 °F 65% 30.51 in 10.0 mi North 9.2 mph - N/A   Clear
7:55 PM 33.8 °F 27.0 °F 23.0 °F 65% 30.52 in 10.0 mi North 8.1 mph - N/A   Clear
8:15 PM 32.0 °F 24.8 °F 23.0 °F 69% 30.52 in 10.0 mi North 8.1 mph - N/A   Clear
8:35 PM 32.0 °F 23.6 °F 23.0 °F 69% 30.51 in 10.0 mi North 10.4 mph - N/A   Clear
8:55 PM 30.2 °F 21.9 °F 23.0 °F 75% 30.51 in 10.0 mi North 9.2 mph - N/A   Clear
9:35 PM 30.2 °F 22.6 °F 23.0 °F 75% 30.50 in 10.0 mi North 8.1 mph - N/A   Clear
9:55 PM 30.2 °F 22.6 °F 23.0 °F 75% 30.50 in 10.0 mi North 8.1 mph - N/A   Clear
10:15 PM 30.2 °F 21.9 °F 23.0 °F 75% 30.49 in 10.0 mi North 9.2 mph - N/A   Clear
10:35 PM 28.4 °F 20.4 °F 21.2 °F 74% 30.50 in 10.0 mi North 8.1 mph - N/A   Clear
10:55 PM 30.2 °F 22.6 °F 23.0 °F 75% 30.50 in 10.0 mi North 8.1 mph - N/A   Clear
11:15 PM 28.4 °F 20.4 °F 23.0 °F 80% 30.50 in 10.0 mi North 8.1 mph - N/A   Clear
11:35 PM 30.2 °F 22.6 °F 21.2 °F 69% 30.50 in 10.0 mi North 8.1 mph - N/A   Clear
11:55 PM 28.4 °F 20.4 °F 21.2 °F 74% 30.49 in 10.0 mi North 8.1 mph - N/A   Clear